Year,Month,Day,Hour,Minute,Value (Times are PST for temperature in C)
2011,07,30,00,00,13.60
2011,07,30,00,01,13.60
2011,07,30,00,02,13.70
2011,07,30,00,03,13.70
2011,07,30,00,04,13.70
2011,07,30,00,05,13.70
2011,07,30,00,06,13.70
2011,07,30,00,07,13.70
2011,07,30,00,08,13.70
2011,07,30,00,09,13.70
2011,07,30,00,10,13.70
2011,07,30,00,11,13.70
2011,07,30,00,12,13.70
2011,07,30,00,13,13.70
2011,07,30,00,14,13.70
2011,07,30,00,15,13.70
2011,07,30,00,16,13.60
2011,07,30,00,17,13.60
2011,07,30,00,18,13.60
2011,07,30,00,19,13.60
2011,07,30,00,20,13.60
2011,07,30,00,21,13.60
2011,07,30,00,22,13.60
2011,07,30,00,23,13.60
2011,07,30,00,24,13.60
2011,07,30,00,25,13.60
2011,07,30,00,26,13.60
2011,07,30,00,27,13.60
2011,07,30,00,28,13.60
2011,07,30,00,29,13.60
2011,07,30,00,30,13.60
2011,07,30,00,31,13.60
2011,07,30,00,32,13.60
2011,07,30,00,33,13.60
2011,07,30,00,34,13.60
2011,07,30,00,35,13.60
2011,07,30,00,36,13.60
2011,07,30,00,37,13.50
2011,07,30,00,38,13.50
2011,07,30,00,39,13.50
2011,07,30,00,40,13.50
2011,07,30,00,41,13.50
2011,07,30,00,42,13.50
2011,07,30,00,43,13.50
2011,07,30,00,44,13.50
2011,07,30,00,45,13.50
2011,07,30,00,46,13.50
2011,07,30,00,47,13.50
2011,07,30,00,48,13.50
2011,07,30,00,49,13.50
2011,07,30,00,50,13.50
2011,07,30,00,51,13.50
2011,07,30,00,52,13.50
2011,07,30,00,53,13.50
2011,07,30,00,54,13.50
2011,07,30,00,55,13.50
2011,07,30,00,56,13.40
2011,07,30,00,57,13.40
2011,07,30,00,58,13.40
2011,07,30,00,59,13.40
2011,07,30,01,00,13.30
2011,07,30,01,01,13.30
2011,07,30,01,02,13.30
2011,07,30,01,03,13.30
2011,07,30,01,04,13.30
2011,07,30,01,05,13.30
2011,07,30,01,06,13.20
2011,07,30,01,07,13.20
2011,07,30,01,08,13.20
2011,07,30,01,09,13.20
2011,07,30,01,10,13.10
2011,07,30,01,11,13.10
2011,07,30,01,12,13.10
2011,07,30,01,13,13.00
2011,07,30,01,14,13.00
2011,07,30,01,15,12.90
2011,07,30,01,16,12.90
2011,07,30,01,17,12.80
2011,07,30,01,18,12.80
2011,07,30,01,19,12.80
2011,07,30,01,20,12.80
2011,07,30,01,21,12.80
2011,07,30,01,22,12.80
2011,07,30,01,23,12.80
2011,07,30,01,24,12.70
2011,07,30,01,25,12.70
2011,07,30,01,26,12.70
2011,07,30,01,27,12.70
2011,07,30,01,28,12.60
2011,07,30,01,29,12.60
2011,07,30,01,30,12.60
2011,07,30,01,31,12.60
2011,07,30,01,32,12.50
2011,07,30,01,33,12.50
2011,07,30,01,34,12.50
2011,07,30,01,35,12.50
2011,07,30,01,36,12.50
2011,07,30,01,37,12.50
2011,07,30,01,38,12.50
2011,07,30,01,39,12.50
2011,07,30,01,40,12.50
2011,07,30,01,41,12.50
2011,07,30,01,42,12.50
2011,07,30,01,43,12.50
2011,07,30,01,44,12.50
2011,07,30,01,45,12.50
2011,07,30,01,46,12.50
2011,07,30,01,47,12.50
2011,07,30,01,48,12.50
2011,07,30,01,49,12.50
2011,07,30,01,50,12.50
2011,07,30,01,51,12.50
2011,07,30,01,52,12.50
2011,07,30,01,53,12.50
2011,07,30,01,54,12.50
2011,07,30,01,55,12.50
2011,07,30,01,56,12.50
2011,07,30,01,57,12.50
2011,07,30,01,58,12.50
2011,07,30,01,59,12.50
2011,07,30,02,00,12.60
2011,07,30,02,01,12.60
2011,07,30,02,02,12.60
2011,07,30,02,03,12.60
2011,07,30,02,04,12.60
2011,07,30,02,05,12.60
2011,07,30,02,06,12.60
2011,07,30,02,07,12.60
2011,07,30,02,08,12.60
2011,07,30,02,09,12.50
2011,07,30,02,10,12.50
2011,07,30,02,11,12.50
2011,07,30,02,12,12.40
2011,07,30,02,13,12.40
2011,07,30,02,14,12.40
2011,07,30,02,15,12.40
2011,07,30,02,16,12.30
2011,07,30,02,17,12.30
2011,07,30,02,18,12.30
2011,07,30,02,19,12.30
2011,07,30,02,20,12.30
2011,07,30,02,21,12.30
2011,07,30,02,22,12.30
2011,07,30,02,23,12.30
2011,07,30,02,24,12.30
2011,07,30,02,25,12.30
2011,07,30,02,26,12.30
2011,07,30,02,27,12.30
2011,07,30,02,28,12.30
2011,07,30,02,29,12.30
2011,07,30,02,30,12.30
2011,07,30,02,31,12.30
2011,07,30,02,32,12.30
2011,07,30,02,33,12.30
2011,07,30,02,34,12.30
2011,07,30,02,35,12.30
2011,07,30,02,36,12.20
2011,07,30,02,37,12.20
2011,07,30,02,38,12.20
2011,07,30,02,39,12.20
2011,07,30,02,40,12.20
2011,07,30,02,41,12.20
2011,07,30,02,42,12.20
2011,07,30,02,43,12.20
2011,07,30,02,44,12.20
2011,07,30,02,45,12.20
2011,07,30,02,46,12.20
2011,07,30,02,47,12.20
2011,07,30,02,48,12.20
2011,07,30,02,49,12.20
2011,07,30,02,50,12.20
2011,07,30,02,51,12.20
2011,07,30,02,52,12.20
2011,07,30,02,53,12.20
2011,07,30,02,54,12.20
2011,07,30,02,55,12.10
2011,07,30,02,56,12.10
2011,07,30,02,57,12.10
2011,07,30,02,58,12.10
2011,07,30,02,59,12.10
2011,07,30,03,00,12.10
2011,07,30,03,01,12.10
2011,07,30,03,02,12.10
2011,07,30,03,03,12.10
2011,07,30,03,04,12.10
2011,07,30,03,05,12.10
2011,07,30,03,06,12.00
2011,07,30,03,07,12.00
2011,07,30,03,08,12.00
2011,07,30,03,09,12.00
2011,07,30,03,10,12.00
2011,07,30,03,11,12.00
2011,07,30,03,12,12.00
2011,07,30,03,13,12.00
2011,07,30,03,14,12.00
2011,07,30,03,15,12.00
2011,07,30,03,16,12.00
2011,07,30,03,17,11.90
2011,07,30,03,18,11.90
2011,07,30,03,19,12.00
2011,07,30,03,20,11.90
2011,07,30,03,21,11.90
2011,07,30,03,22,11.90
2011,07,30,03,23,11.90
2011,07,30,03,24,12.00
2011,07,30,03,25,12.00
2011,07,30,03,26,12.00
2011,07,30,03,27,12.00
2011,07,30,03,28,12.00
2011,07,30,03,29,12.00
2011,07,30,03,30,12.00
2011,07,30,03,31,12.00
2011,07,30,03,32,12.00
2011,07,30,03,33,12.00
2011,07,30,03,34,12.00
2011,07,30,03,35,12.00
2011,07,30,03,36,12.00
2011,07,30,03,37,12.00
2011,07,30,03,38,12.00
2011,07,30,03,39,12.00
2011,07,30,03,40,12.00
2011,07,30,03,41,12.00
2011,07,30,03,42,12.00
2011,07,30,03,43,12.00
2011,07,30,03,44,11.90
2011,07,30,03,45,11.90
2011,07,30,03,46,11.90
2011,07,30,03,47,11.90
2011,07,30,03,48,11.90
2011,07,30,03,49,11.90
2011,07,30,03,50,11.90
2011,07,30,03,51,11.90
2011,07,30,03,52,11.90
2011,07,30,03,53,11.90
2011,07,30,03,54,11.90
2011,07,30,03,55,11.90
2011,07,30,03,56,11.90
2011,07,30,03,57,11.90
2011,07,30,03,58,11.90
2011,07,30,03,59,11.80
2011,07,30,04,00,11.80
2011,07,30,04,01,11.80
2011,07,30,04,02,11.80
2011,07,30,04,03,11.80
2011,07,30,04,04,11.80
2011,07,30,04,05,11.80
2011,07,30,04,06,11.80
2011,07,30,04,07,11.80
2011,07,30,04,08,11.80
2011,07,30,04,09,11.70
2011,07,30,04,10,11.70
2011,07,30,04,11,11.70
2011,07,30,04,12,11.70
2011,07,30,04,13,11.70
2011,07,30,04,14,11.70
2011,07,30,04,15,11.60
2011,07,30,04,16,11.60
2011,07,30,04,17,11.60
2011,07,30,04,18,11.60
2011,07,30,04,19,11.60
2011,07,30,04,20,11.60
2011,07,30,04,21,11.60
2011,07,30,04,22,11.60
2011,07,30,04,23,11.60
2011,07,30,04,24,11.60
2011,07,30,04,25,11.60
2011,07,30,04,26,11.70
2011,07,30,04,27,11.70
2011,07,30,04,28,11.70
2011,07,30,04,29,11.70
2011,07,30,04,30,11.60
2011,07,30,04,31,11.60
2011,07,30,04,32,11.60
2011,07,30,04,33,11.60
2011,07,30,04,34,11.60
2011,07,30,04,35,11.60
2011,07,30,04,36,11.60
2011,07,30,04,37,11.60
2011,07,30,04,38,11.60
2011,07,30,04,39,11.60
2011,07,30,04,40,11.60
2011,07,30,04,41,11.60
2011,07,30,04,42,11.60
2011,07,30,04,43,11.60
2011,07,30,04,44,11.60
2011,07,30,04,45,11.60
2011,07,30,04,46,11.60
2011,07,30,04,47,11.60
2011,07,30,04,48,11.60
2011,07,30,04,49,11.60
2011,07,30,04,50,11.60
2011,07,30,04,51,11.60
2011,07,30,04,52,11.60
2011,07,30,04,53,11.60
2011,07,30,04,54,11.60
2011,07,30,04,55,11.60
2011,07,30,04,56,11.60
2011,07,30,04,57,11.60
2011,07,30,04,58,11.60
2011,07,30,04,59,11.60
2011,07,30,05,00,11.60
2011,07,30,05,01,11.60
2011,07,30,05,02,11.60
2011,07,30,05,03,11.60
2011,07,30,05,04,11.60
2011,07,30,05,05,11.60
2011,07,30,05,06,11.60
2011,07,30,05,07,11.60
2011,07,30,05,08,11.60
2011,07,30,05,09,11.60
2011,07,30,05,10,11.60
2011,07,30,05,11,11.60
2011,07,30,05,12,11.60
2011,07,30,05,13,11.60
2011,07,30,05,14,11.60
2011,07,30,05,15,11.60
2011,07,30,05,16,11.60
2011,07,30,05,17,11.60
2011,07,30,05,18,11.60
2011,07,30,05,19,11.60
2011,07,30,05,20,11.60
2011,07,30,05,21,11.50
2011,07,30,05,22,11.40
2011,07,30,05,23,11.40
2011,07,30,05,24,11.40
2011,07,30,05,25,11.40
2011,07,30,05,26,11.40
2011,07,30,05,27,11.40
2011,07,30,05,28,11.40
2011,07,30,05,29,11.40
2011,07,30,05,30,11.40
2011,07,30,05,31,11.40
2011,07,30,05,32,11.40
2011,07,30,05,33,11.40
2011,07,30,05,34,11.40
2011,07,30,05,35,11.40
2011,07,30,05,36,11.40
2011,07,30,05,37,11.40
2011,07,30,05,38,11.40
2011,07,30,05,39,11.40
2011,07,30,05,40,11.40
2011,07,30,05,41,11.40
2011,07,30,05,42,11.40
2011,07,30,05,43,11.40
2011,07,30,05,44,11.40
2011,07,30,05,45,11.40
2011,07,30,05,46,11.40
2011,07,30,05,47,11.40
2011,07,30,05,48,11.40
2011,07,30,05,49,11.40
2011,07,30,05,50,11.40
2011,07,30,05,51,11.40
2011,07,30,05,52,11.40
2011,07,30,05,53,11.40
2011,07,30,05,54,11.40
2011,07,30,05,55,11.40
2011,07,30,05,56,11.40
2011,07,30,05,57,11.40
2011,07,30,05,58,11.40
2011,07,30,05,59,11.40
2011,07,30,06,00,11.40
2011,07,30,06,01,11.40
2011,07,30,06,02,11.40
2011,07,30,06,03,11.40
2011,07,30,06,04,11.30
2011,07,30,06,05,11.30
2011,07,30,06,06,11.30
2011,07,30,06,07,11.30
2011,07,30,06,08,11.30
2011,07,30,06,09,11.30
2011,07,30,06,10,11.40
2011,07,30,06,11,11.40
2011,07,30,06,12,11.40
2011,07,30,06,13,11.40
2011,07,30,06,14,11.40
2011,07,30,06,15,11.40
2011,07,30,06,16,11.50
2011,07,30,06,17,11.60
2011,07,30,06,18,11.60
2011,07,30,06,19,11.60
2011,07,30,06,20,11.60
2011,07,30,06,21,11.60
2011,07,30,06,22,11.60
2011,07,30,06,23,11.60
2011,07,30,06,24,11.60
2011,07,30,06,25,11.60
2011,07,30,06,26,11.60
2011,07,30,06,27,11.60
2011,07,30,06,28,11.60
2011,07,30,06,29,11.60
2011,07,30,06,30,11.60
2011,07,30,06,31,11.60
2011,07,30,06,32,11.60
2011,07,30,06,33,11.60
2011,07,30,06,34,11.60
2011,07,30,06,35,11.60
2011,07,30,06,36,11.60
2011,07,30,06,37,11.70
2011,07,30,06,38,11.70
2011,07,30,06,39,11.70
2011,07,30,06,40,11.70
2011,07,30,06,41,11.70
2011,07,30,06,42,11.70
2011,07,30,06,43,11.70
2011,07,30,06,44,11.70
2011,07,30,06,45,11.70
2011,07,30,06,46,11.70
2011,07,30,06,47,11.70
2011,07,30,06,48,11.80
2011,07,30,06,49,11.80
2011,07,30,06,50,11.80
2011,07,30,06,51,11.80
2011,07,30,06,52,11.80
2011,07,30,06,53,11.80
2011,07,30,06,54,11.80
2011,07,30,06,55,11.80
2011,07,30,06,56,11.80
2011,07,30,06,57,11.80
2011,07,30,06,58,11.90
2011,07,30,06,59,11.90
2011,07,30,07,00,11.90
2011,07,30,07,01,11.90
2011,07,30,07,02,11.80
2011,07,30,07,03,11.80
2011,07,30,07,04,11.80
2011,07,30,07,05,11.90
2011,07,30,07,06,11.90
2011,07,30,07,07,11.90
2011,07,30,07,08,11.90
2011,07,30,07,09,11.90
2011,07,30,07,10,11.90
2011,07,30,07,11,11.90
2011,07,30,07,12,11.90
2011,07,30,07,13,12.00
2011,07,30,07,14,12.00
2011,07,30,07,15,12.00
2011,07,30,07,16,12.00
2011,07,30,07,17,12.00
2011,07,30,07,18,12.00
2011,07,30,07,19,12.00
2011,07,30,07,20,12.10
2011,07,30,07,21,12.10
2011,07,30,07,22,12.10
2011,07,30,07,23,12.10
2011,07,30,07,24,12.10
2011,07,30,07,25,12.20
2011,07,30,07,26,12.20
2011,07,30,07,27,12.20
2011,07,30,07,28,12.30
2011,07,30,07,29,12.30
2011,07,30,07,30,12.30
2011,07,30,07,31,12.30
2011,07,30,07,32,12.40
2011,07,30,07,33,12.50
2011,07,30,07,34,12.50
2011,07,30,07,35,12.50
2011,07,30,07,36,12.50
2011,07,30,07,37,12.50
2011,07,30,07,38,12.50
2011,07,30,07,39,12.50
2011,07,30,07,40,12.50
2011,07,30,07,41,12.50
2011,07,30,07,42,12.60
2011,07,30,07,43,12.60
2011,07,30,07,44,12.60
2011,07,30,07,45,12.60
2011,07,30,07,46,12.60
2011,07,30,07,47,12.60
2011,07,30,07,48,12.60
2011,07,30,07,49,12.50
2011,07,30,07,50,12.50
2011,07,30,07,51,12.50
2011,07,30,07,52,12.50
2011,07,30,07,53,12.50
2011,07,30,07,54,12.50
2011,07,30,07,55,12.50
2011,07,30,07,56,12.50
2011,07,30,07,57,12.50
2011,07,30,07,58,12.50
2011,07,30,07,59,12.50
2011,07,30,08,00,12.50
2011,07,30,08,01,12.60
2011,07,30,08,02,12.60
2011,07,30,08,03,12.60
2011,07,30,08,04,12.70
2011,07,30,08,05,12.70
2011,07,30,08,06,12.70
2011,07,30,08,07,12.70
2011,07,30,08,08,12.70
2011,07,30,08,09,12.70
2011,07,30,08,10,12.70
2011,07,30,08,11,12.70
2011,07,30,08,12,12.70
2011,07,30,08,13,12.70
2011,07,30,08,14,12.70
2011,07,30,08,15,12.70
2011,07,30,08,16,12.70
2011,07,30,08,17,12.80
2011,07,30,08,18,12.80
2011,07,30,08,19,12.80
2011,07,30,08,20,12.80
2011,07,30,08,21,12.80
2011,07,30,08,22,12.80
2011,07,30,08,23,12.90
2011,07,30,08,24,12.90
2011,07,30,08,25,13.00
2011,07,30,08,26,13.00
2011,07,30,08,27,13.00
2011,07,30,08,28,13.00
2011,07,30,08,29,13.10
2011,07,30,08,30,13.10
2011,07,30,08,31,13.10
2011,07,30,08,32,13.10
2011,07,30,08,33,13.10
2011,07,30,08,34,13.00
2011,07,30,08,35,13.00
2011,07,30,08,36,13.00
2011,07,30,08,37,13.00
2011,07,30,08,38,13.00
2011,07,30,08,39,13.00
2011,07,30,08,40,13.00
2011,07,30,08,41,13.00
2011,07,30,08,42,13.00
2011,07,30,08,43,13.00
2011,07,30,08,44,13.00
2011,07,30,08,45,13.10
2011,07,30,08,46,13.10
2011,07,30,08,47,13.00
2011,07,30,08,48,13.00
2011,07,30,08,49,13.10
2011,07,30,08,50,13.10
2011,07,30,08,51,13.00
2011,07,30,08,52,13.00
2011,07,30,08,53,13.10
2011,07,30,08,54,13.10
2011,07,30,08,55,13.10
2011,07,30,08,56,13.10
2011,07,30,08,57,13.10
2011,07,30,08,58,13.00
2011,07,30,08,59,13.10
2011,07,30,09,00,13.10
2011,07,30,09,01,13.10
2011,07,30,09,02,13.10
2011,07,30,09,03,13.10
2011,07,30,09,04,13.20
2011,07,30,09,05,13.20
2011,07,30,09,06,13.20
2011,07,30,09,07,13.20
2011,07,30,09,08,13.20
2011,07,30,09,09,13.20
2011,07,30,09,10,13.30
2011,07,30,09,11,13.30
2011,07,30,09,12,13.30
2011,07,30,09,13,13.40
2011,07,30,09,14,13.50
2011,07,30,09,15,13.50
2011,07,30,09,16,13.50
2011,07,30,09,17,13.40
2011,07,30,09,18,13.40
2011,07,30,09,19,13.50
2011,07,30,09,20,13.50
2011,07,30,09,21,13.50
2011,07,30,09,22,13.50
2011,07,30,09,23,13.50
2011,07,30,09,24,13.60
2011,07,30,09,25,13.60
2011,07,30,09,26,13.50
2011,07,30,09,27,13.50
2011,07,30,09,28,13.50
2011,07,30,09,29,13.50
2011,07,30,09,30,13.60
2011,07,30,09,31,13.60
2011,07,30,09,32,13.60
2011,07,30,09,33,13.60
2011,07,30,09,34,13.60
2011,07,30,09,35,13.60
2011,07,30,09,36,13.70
2011,07,30,09,37,13.70
2011,07,30,09,38,13.70
2011,07,30,09,39,13.60
2011,07,30,09,40,13.60
2011,07,30,09,41,13.70
2011,07,30,09,42,13.70
2011,07,30,09,43,13.70
2011,07,30,09,44,13.70
2011,07,30,09,45,13.70
2011,07,30,09,46,13.70
2011,07,30,09,47,13.80
2011,07,30,09,48,13.80
2011,07,30,09,49,13.80
2011,07,30,09,50,13.90
2011,07,30,09,51,13.90
2011,07,30,09,52,13.90
2011,07,30,09,53,13.90
2011,07,30,09,54,13.90
2011,07,30,09,55,13.90
2011,07,30,09,56,14.00
2011,07,30,09,57,14.00
2011,07,30,09,58,14.00
2011,07,30,09,59,14.10
2011,07,30,10,00,14.20
2011,07,30,10,01,14.20
2011,07,30,10,02,14.20
2011,07,30,10,03,14.20
2011,07,30,10,04,14.20
2011,07,30,10,05,14.20
2011,07,30,10,06,14.20
2011,07,30,10,07,14.20
2011,07,30,10,08,14.20
2011,07,30,10,09,14.20
2011,07,30,10,10,14.20
2011,07,30,10,11,14.20
2011,07,30,10,12,14.10
2011,07,30,10,13,14.10
2011,07,30,10,14,14.20
2011,07,30,10,15,14.20
2011,07,30,10,16,14.20
2011,07,30,10,17,14.20
2011,07,30,10,18,14.10
2011,07,30,10,19,14.10
2011,07,30,10,20,14.00
2011,07,30,10,21,14.00
2011,07,30,10,22,14.00
2011,07,30,10,23,14.00
2011,07,30,10,24,14.00
2011,07,30,10,25,14.10
2011,07,30,10,26,14.20
2011,07,30,10,27,14.20
2011,07,30,10,28,14.10
2011,07,30,10,29,14.00
2011,07,30,10,30,14.00
2011,07,30,10,31,14.00
2011,07,30,10,32,14.00
2011,07,30,10,33,13.90
2011,07,30,10,34,13.90
2011,07,30,10,35,13.80
2011,07,30,10,36,13.90
2011,07,30,10,37,13.90
2011,07,30,10,38,13.90
2011,07,30,10,39,14.00
2011,07,30,10,40,14.00
2011,07,30,10,41,14.10
2011,07,30,10,42,14.20
2011,07,30,10,43,14.20
2011,07,30,10,44,14.20
2011,07,30,10,45,14.30
2011,07,30,10,46,14.30
2011,07,30,10,47,14.30
2011,07,30,10,48,14.20
2011,07,30,10,49,14.20
2011,07,30,10,50,14.20
2011,07,30,10,51,14.20
2011,07,30,10,52,14.20
2011,07,30,10,53,14.20
2011,07,30,10,54,14.20
2011,07,30,10,55,14.20
2011,07,30,10,56,14.20
2011,07,30,10,57,14.20
2011,07,30,10,58,14.20
2011,07,30,10,59,14.20
2011,07,30,11,00,14.20
2011,07,30,11,01,14.30
2011,07,30,11,02,14.40
2011,07,30,11,03,14.50
2011,07,30,11,04,14.50
2011,07,30,11,05,14.50
2011,07,30,11,06,14.50
2011,07,30,11,07,14.50
2011,07,30,11,08,14.50
2011,07,30,11,09,14.50
2011,07,30,11,10,14.40
2011,07,30,11,11,14.40
2011,07,30,11,12,14.50
2011,07,30,11,13,14.50
2011,07,30,11,14,14.50
2011,07,30,11,15,14.50
2011,07,30,11,16,14.50
2011,07,30,11,17,14.50
2011,07,30,11,18,14.40
2011,07,30,11,19,14.40
2011,07,30,11,20,14.30
2011,07,30,11,21,14.30
2011,07,30,11,22,14.30
2011,07,30,11,23,14.40
2011,07,30,11,24,14.40
2011,07,30,11,25,14.50
2011,07,30,11,26,14.50
2011,07,30,11,27,14.60
2011,07,30,11,28,14.60
2011,07,30,11,29,14.60
2011,07,30,11,30,14.60
2011,07,30,11,31,14.60
2011,07,30,11,32,14.60
2011,07,30,11,33,14.60
2011,07,30,11,34,14.70
2011,07,30,11,35,14.70
2011,07,30,11,36,14.70
2011,07,30,11,37,14.70
2011,07,30,11,38,14.80
2011,07,30,11,39,14.80
2011,07,30,11,40,14.80
2011,07,30,11,41,14.80
2011,07,30,11,42,14.70
2011,07,30,11,43,14.60
2011,07,30,11,44,14.50
2011,07,30,11,45,14.40
2011,07,30,11,46,14.30
2011,07,30,11,47,14.20
2011,07,30,11,48,14.20
2011,07,30,11,49,14.10
2011,07,30,11,50,14.10
2011,07,30,11,51,14.10
2011,07,30,11,52,14.00
2011,07,30,11,53,14.00
2011,07,30,11,54,14.00
2011,07,30,11,55,13.90
2011,07,30,11,56,13.90
2011,07,30,11,57,13.90
2011,07,30,11,58,13.90
2011,07,30,11,59,13.90
2011,07,30,12,00,13.90
2011,07,30,12,01,14.00
2011,07,30,12,02,14.00
2011,07,30,12,03,14.00
2011,07,30,12,04,14.10
2011,07,30,12,05,14.30
2011,07,30,12,06,14.40
2011,07,30,12,07,14.50
2011,07,30,12,08,14.60
2011,07,30,12,09,14.60
2011,07,30,12,10,14.70
2011,07,30,12,11,14.80
2011,07,30,12,12,14.90
2011,07,30,12,13,15.00
2011,07,30,12,14,15.10
2011,07,30,12,15,15.10
2011,07,30,12,16,15.20
2011,07,30,12,17,15.20
2011,07,30,12,18,15.30
2011,07,30,12,19,15.20
2011,07,30,12,20,15.20
2011,07,30,12,21,15.20
2011,07,30,12,22,15.20
2011,07,30,12,23,15.20
2011,07,30,12,24,15.10
2011,07,30,12,25,15.10
2011,07,30,12,26,15.00
2011,07,30,12,27,15.00
2011,07,30,12,28,14.90
2011,07,30,12,29,14.90
2011,07,30,12,30,15.00
2011,07,30,12,31,15.00
2011,07,30,12,32,15.10
2011,07,30,12,33,15.20
2011,07,30,12,34,15.30
2011,07,30,12,35,15.30
2011,07,30,12,36,15.30
2011,07,30,12,37,15.30
2011,07,30,12,38,15.30
2011,07,30,12,39,15.30
2011,07,30,12,40,15.30
2011,07,30,12,41,15.40
2011,07,30,12,42,15.50
2011,07,30,12,43,15.50
2011,07,30,12,44,15.60
2011,07,30,12,45,15.70
2011,07,30,12,46,15.70
2011,07,30,12,47,15.60
2011,07,30,12,48,15.50
2011,07,30,12,49,15.50
2011,07,30,12,50,15.50
2011,07,30,12,51,15.50
2011,07,30,12,52,15.50
2011,07,30,12,53,15.40
2011,07,30,12,54,15.30
2011,07,30,12,55,15.20
2011,07,30,12,56,15.10
2011,07,30,12,57,15.00
2011,07,30,12,58,14.90
2011,07,30,12,59,14.80
2011,07,30,13,00,14.80
2011,07,30,13,01,14.80
2011,07,30,13,02,14.80
2011,07,30,13,03,14.70
2011,07,30,13,04,14.60
2011,07,30,13,05,14.50
2011,07,30,13,06,14.50
2011,07,30,13,07,14.40
2011,07,30,13,08,14.30
2011,07,30,13,09,14.40
2011,07,30,13,10,14.40
2011,07,30,13,11,14.40
2011,07,30,13,12,14.40
2011,07,30,13,13,14.40
2011,07,30,13,14,14.40
2011,07,30,13,15,14.30
2011,07,30,13,16,14.20
2011,07,30,13,17,14.30
2011,07,30,13,18,14.30
2011,07,30,13,19,14.30
2011,07,30,13,20,14.30
2011,07,30,13,21,14.40
2011,07,30,13,22,14.50
2011,07,30,13,23,14.50
2011,07,30,13,24,14.60
2011,07,30,13,25,14.70
2011,07,30,13,26,14.80
2011,07,30,13,27,14.80
2011,07,30,13,28,14.80
2011,07,30,13,29,14.80
2011,07,30,13,30,14.80
2011,07,30,13,31,14.80
2011,07,30,13,32,14.80
2011,07,30,13,33,14.80
2011,07,30,13,34,14.80
2011,07,30,13,35,14.80
2011,07,30,13,36,14.70
2011,07,30,13,37,14.70
2011,07,30,13,38,14.70
2011,07,30,13,39,14.70
2011,07,30,13,40,14.80
2011,07,30,13,41,14.80
2011,07,30,13,42,14.80
2011,07,30,13,43,14.80
2011,07,30,13,44,14.80
2011,07,30,13,45,14.80
2011,07,30,13,46,14.70
2011,07,30,13,47,14.60
2011,07,30,13,48,14.60
2011,07,30,13,49,14.60
2011,07,30,13,50,14.50
2011,07,30,13,51,14.50
2011,07,30,13,52,14.50
2011,07,30,13,53,14.50
2011,07,30,13,54,14.40
2011,07,30,13,55,14.40
2011,07,30,13,56,14.40
2011,07,30,13,57,14.40
2011,07,30,13,58,14.40
2011,07,30,13,59,14.40
2011,07,30,14,00,14.40
2011,07,30,14,01,14.40
2011,07,30,14,02,14.40
2011,07,30,14,03,14.50
2011,07,30,14,04,14.60
2011,07,30,14,05,14.60
2011,07,30,14,06,14.60
2011,07,30,14,07,14.60
2011,07,30,14,08,14.60
2011,07,30,14,09,14.60
2011,07,30,14,10,14.60
2011,07,30,14,11,14.50
2011,07,30,14,12,14.50
2011,07,30,14,13,14.50
2011,07,30,14,14,14.50
2011,07,30,14,15,14.40
2011,07,30,14,16,14.40
2011,07,30,14,17,14.30
2011,07,30,14,18,14.30
2011,07,30,14,19,14.20
2011,07,30,14,20,14.20
2011,07,30,14,21,14.20
2011,07,30,14,22,14.20
2011,07,30,14,23,14.30
2011,07,30,14,24,14.40
2011,07,30,14,25,14.50
2011,07,30,14,26,14.60
2011,07,30,14,27,14.60
2011,07,30,14,28,14.60
2011,07,30,14,29,14.70
2011,07,30,14,30,14.60
2011,07,30,14,31,14.60
2011,07,30,14,32,14.60
2011,07,30,14,33,14.60
2011,07,30,14,34,14.60
2011,07,30,14,35,14.60
2011,07,30,14,36,14.60
2011,07,30,14,37,14.70
2011,07,30,14,38,14.70
2011,07,30,14,39,14.70
2011,07,30,14,40,14.70
2011,07,30,14,41,14.80
2011,07,30,14,42,14.80
2011,07,30,14,43,14.80
2011,07,30,14,44,14.80
2011,07,30,14,45,14.80
2011,07,30,14,46,14.80
2011,07,30,14,47,14.80
2011,07,30,14,48,14.80
2011,07,30,14,49,14.80
2011,07,30,14,50,14.80
2011,07,30,14,51,14.70
2011,07,30,14,52,14.70
2011,07,30,14,53,14.70
2011,07,30,14,54,14.70
2011,07,30,14,55,14.70
2011,07,30,14,56,14.60
2011,07,30,14,57,14.60
2011,07,30,14,58,14.60
2011,07,30,14,59,14.70
2011,07,30,15,00,14.80
2011,07,30,15,01,14.80
2011,07,30,15,02,14.80
2011,07,30,15,03,14.90
2011,07,30,15,04,14.90
2011,07,30,15,05,14.90
2011,07,30,15,06,14.80
2011,07,30,15,07,14.80
2011,07,30,15,08,14.90
2011,07,30,15,09,14.90
2011,07,30,15,10,14.90
2011,07,30,15,11,14.90
2011,07,30,15,12,14.90
2011,07,30,15,13,14.90
2011,07,30,15,14,14.90
2011,07,30,15,15,14.90
2011,07,30,15,16,15.00
2011,07,30,15,17,15.00
2011,07,30,15,18,15.00
2011,07,30,15,19,14.90
2011,07,30,15,20,14.90
2011,07,30,15,21,14.80
2011,07,30,15,22,14.80
2011,07,30,15,23,14.80
2011,07,30,15,24,14.80
2011,07,30,15,25,14.80
2011,07,30,15,26,14.80
2011,07,30,15,27,14.80
2011,07,30,15,28,14.70
2011,07,30,15,29,14.70
2011,07,30,15,30,14.70
2011,07,30,15,31,14.80
2011,07,30,15,32,14.80
2011,07,30,15,33,14.80
2011,07,30,15,34,14.90
2011,07,30,15,35,14.90
2011,07,30,15,36,14.90
2011,07,30,15,37,15.00
2011,07,30,15,38,15.10
2011,07,30,15,39,15.10
2011,07,30,15,40,15.30
2011,07,30,15,41,15.30
2011,07,30,15,42,15.40
2011,07,30,15,43,15.50
2011,07,30,15,44,15.50
2011,07,30,15,45,15.50
2011,07,30,15,46,15.30
2011,07,30,15,47,15.20
2011,07,30,15,48,15.10
2011,07,30,15,49,15.10
2011,07,30,15,50,15.10
2011,07,30,15,51,15.00
2011,07,30,15,52,14.90
2011,07,30,15,53,14.80
2011,07,30,15,54,14.80
2011,07,30,15,55,14.80
2011,07,30,15,56,14.70
2011,07,30,15,57,14.70
2011,07,30,15,58,14.70
2011,07,30,15,59,14.70
2011,07,30,16,00,14.70
2011,07,30,16,01,14.70
2011,07,30,16,02,14.60
2011,07,30,16,03,14.50
2011,07,30,16,04,14.30
2011,07,30,16,05,14.30
2011,07,30,16,06,14.50
2011,07,30,16,07,14.60
2011,07,30,16,08,14.70
2011,07,30,16,09,14.80
2011,07,30,16,10,14.80
2011,07,30,16,11,14.80
2011,07,30,16,12,14.80
2011,07,30,16,13,14.80
2011,07,30,16,14,14.90
2011,07,30,16,15,14.90
2011,07,30,16,16,15.00
2011,07,30,16,17,15.00
2011,07,30,16,18,15.10
2011,07,30,16,19,15.10
2011,07,30,16,20,15.00
2011,07,30,16,21,14.90
2011,07,30,16,22,14.80
2011,07,30,16,23,14.80
2011,07,30,16,24,14.60
2011,07,30,16,25,14.50
2011,07,30,16,26,14.40
2011,07,30,16,27,14.40
2011,07,30,16,28,14.50
2011,07,30,16,29,14.60
2011,07,30,16,30,14.70
2011,07,30,16,31,14.80
2011,07,30,16,32,14.80
2011,07,30,16,33,14.80
2011,07,30,16,34,14.80
2011,07,30,16,35,14.80
2011,07,30,16,36,14.80
2011,07,30,16,37,14.80
2011,07,30,16,38,14.80
2011,07,30,16,39,14.80
2011,07,30,16,40,14.80
2011,07,30,16,41,14.80
2011,07,30,16,42,14.90
2011,07,30,16,43,15.00
2011,07,30,16,44,15.10
2011,07,30,16,45,15.20
2011,07,30,16,46,15.30
2011,07,30,16,47,15.40
2011,07,30,16,48,15.40
2011,07,30,16,49,15.50
2011,07,30,16,50,15.70
2011,07,30,16,51,16.00
2011,07,30,16,52,16.20
2011,07,30,16,53,16.40
2011,07,30,16,54,16.60
2011,07,30,16,55,16.70
2011,07,30,16,56,16.90
2011,07,30,16,57,17.00
2011,07,30,16,58,17.00
2011,07,30,16,59,17.10
2011,07,30,17,00,17.30
2011,07,30,17,01,17.40
2011,07,30,17,02,17.40
2011,07,30,17,03,17.40
2011,07,30,17,04,17.40
2011,07,30,17,05,17.50
2011,07,30,17,06,17.50
2011,07,30,17,07,17.60
2011,07,30,17,08,17.60
2011,07,30,17,09,17.60
2011,07,30,17,10,17.60
2011,07,30,17,11,17.80
2011,07,30,17,12,18.20
2011,07,30,17,13,18.60
2011,07,30,17,14,19.20
2011,07,30,17,15,19.70
2011,07,30,17,16,20.10
2011,07,30,17,17,20.50
2011,07,30,17,18,20.70
2011,07,30,17,19,21.00